#datetime,building,power
2024-01-19T00:00:00,axn,34.39
2024-01-19T00:01:00,axn,35.07
2024-01-19T00:02:00,axn,35.45
2024-01-19T00:03:00,axn,34.76
2024-01-19T00:04:00,axn,34.43
2024-01-19T00:05:00,axn,34.54
2024-01-19T00:06:00,axn,34.12
2024-01-19T00:07:00,axn,33.88
2024-01-19T00:08:00,axn,33.46
2024-01-19T00:09:00,axn,33.21
2024-01-19T00:10:00,axn,33.26
2024-01-19T00:11:00,axn,33.24
2024-01-19T00:12:00,axn,33.55
2024-01-19T00:13:00,axn,34.07
2024-01-19T00:14:00,axn,33.62
2024-01-19T00:15:00,axn,33.56
2024-01-19T00:16:00,axn,33.72
2024-01-19T00:17:00,axn,33.67
2024-01-19T00:18:00,axn,33.35
2024-01-19T00:19:00,axn,33.46
2024-01-19T00:20:00,axn,33.50
2024-01-19T00:21:00,axn,33.30
2024-01-19T00:22:00,axn,36.59
2024-01-19T00:23:00,axn,36.63
2024-01-19T00:24:00,axn,33.53
2024-01-19T00:25:00,axn,34.75
2024-01-19T00:26:00,axn,34.39
2024-01-19T00:27:00,axn,34.20
2024-01-19T00:28:00,axn,34.61
2024-01-19T00:29:00,axn,34.98
2024-01-19T00:30:00,axn,34.14
2024-01-19T00:31:00,axn,34.11
2024-01-19T00:32:00,axn,33.36
2024-01-19T00:33:00,axn,34.39
2024-01-19T00:34:00,axn,33.37
2024-01-19T00:35:00,axn,33.47
2024-01-19T00:36:00,axn,33.41
2024-01-19T00:37:00,axn,33.41
2024-01-19T00:38:00,axn,33.41
2024-01-19T00:39:00,axn,33.72
2024-01-19T00:40:00,axn,33.84
2024-01-19T00:41:00,axn,33.75
2024-01-19T00:42:00,axn,33.80
2024-01-19T00:43:00,axn,33.48
2024-01-19T00:44:00,axn,33.57
2024-01-19T00:45:00,axn,33.59
2024-01-19T00:46:00,axn,33.56
2024-01-19T00:47:00,axn,33.50
2024-01-19T00:48:00,axn,33.45
2024-01-19T00:49:00,axn,33.18
2024-01-19T00:50:00,axn,33.03
2024-01-19T00:51:00,axn,33.04
2024-01-19T00:52:00,axn,33.27
2024-01-19T00:53:00,axn,37.90
2024-01-19T00:54:00,axn,37.59
2024-01-19T00:55:00,axn,37.99
2024-01-19T00:56:00,axn,37.98
2024-01-19T00:57:00,axn,33.32
2024-01-19T00:58:00,axn,32.93
2024-01-19T00:59:00,axn,32.81
2024-01-19T01:00:00,axn,32.61
2024-01-19T01:01:00,axn,32.86
2024-01-19T01:02:00,axn,33.10
2024-01-19T01:03:00,axn,33.35
2024-01-19T01:04:00,axn,33.22
2024-01-19T01:05:00,axn,34.48
2024-01-19T01:06:00,axn,33.17
2024-01-19T01:07:00,axn,33.47
2024-01-19T01:08:00,axn,33.46
2024-01-19T01:09:00,axn,33.49
2024-01-19T01:10:00,axn,33.32
2024-01-19T01:11:00,axn,32.50
2024-01-19T01:12:00,axn,32.59
2024-01-19T01:13:00,axn,33.00
2024-01-19T01:14:00,axn,32.84
2024-01-19T01:15:00,axn,32.88
2024-01-19T01:16:00,axn,33.44
2024-01-19T01:17:00,axn,33.55
2024-01-19T01:18:00,axn,32.75
2024-01-19T01:19:00,axn,33.06
2024-01-19T01:20:00,axn,32.52
2024-01-19T01:21:00,axn,32.17
2024-01-19T01:22:00,axn,32.30
2024-01-19T01:23:00,axn,37.94
2024-01-19T01:24:00,axn,38.11
2024-01-19T01:25:00,axn,38.37
2024-01-19T01:26:00,axn,32.35
2024-01-19T01:27:00,axn,32.47
2024-01-19T01:28:00,axn,33.52
2024-01-19T01:29:00,axn,31.85
2024-01-19T01:30:00,axn,31.89
2024-01-19T01:31:00,axn,32.63
2024-01-19T01:32:00,axn,33.36
2024-01-19T01:33:00,axn,32.83
2024-01-19T01:34:00,axn,32.15
2024-01-19T01:35:00,axn,31.85
2024-01-19T01:36:00,axn,32.09
2024-01-19T01:37:00,axn,32.11
2024-01-19T01:38:00,axn,32.31
2024-01-19T01:39:00,axn,32.20
2024-01-19T01:40:00,axn,32.73
2024-01-19T01:41:00,axn,32.47
2024-01-19T01:42:00,axn,31.24
2024-01-19T01:43:00,axn,28.44
2024-01-19T01:44:00,axn,28.48
2024-01-19T01:45:00,axn,28.54
2024-01-19T01:46:00,axn,28.60
2024-01-19T01:47:00,axn,28.34
2024-01-19T01:48:00,axn,28.57
2024-01-19T01:49:00,axn,28.86
2024-01-19T01:50:00,axn,28.15
2024-01-19T01:51:00,axn,28.36
2024-01-19T01:52:00,axn,28.43
2024-01-19T01:53:00,axn,28.30
2024-01-19T01:54:00,axn,28.32
2024-01-19T01:55:00,axn,28.49
2024-01-19T01:56:00,axn,28.26
2024-01-19T01:57:00,axn,28.29
2024-01-19T01:58:00,axn,28.26
2024-01-19T01:59:00,axn,28.07
2024-01-19T02:00:00,axn,28.01
2024-01-19T02:01:00,axn,44.40
2024-01-19T02:02:00,axn,28.80
2024-01-19T02:03:00,axn,28.56
2024-01-19T02:04:00,axn,28.32
2024-01-19T02:05:00,axn,28.18
2024-01-19T02:06:00,axn,28.21
2024-01-19T02:07:00,axn,28.18
2024-01-19T02:08:00,axn,28.59
2024-01-19T02:09:00,axn,27.95
2024-01-19T02:10:00,axn,28.39
2024-01-19T02:11:00,axn,27.91
2024-01-19T02:12:00,axn,27.96
2024-01-19T02:13:00,axn,27.97
2024-01-19T02:14:00,axn,28.04
2024-01-19T02:15:00,axn,28.15
2024-01-19T02:16:00,axn,28.36
2024-01-19T02:17:00,axn,28.26
2024-01-19T02:18:00,axn,28.35
2024-01-19T02:19:00,axn,28.43
2024-01-19T02:20:00,axn,28.46
2024-01-19T02:21:00,axn,28.66
2024-01-19T02:22:00,axn,28.71
2024-01-19T02:23:00,axn,28.63
2024-01-19T02:24:00,axn,28.73
2024-01-19T02:25:00,axn,28.57
2024-01-19T02:26:00,axn,28.92
2024-01-19T02:27:00,axn,28.56
2024-01-19T02:28:00,axn,28.54
2024-01-19T02:29:00,axn,28.39
2024-01-19T02:30:00,axn,29.14
2024-01-19T02:31:00,axn,28.37
2024-01-19T02:32:00,axn,28.55
2024-01-19T02:33:00,axn,28.32
2024-01-19T02:34:00,axn,28.92
2024-01-19T02:35:00,axn,29.00
2024-01-19T02:36:00,axn,28.53
2024-01-19T02:37:00,axn,28.14
2024-01-19T02:38:00,axn,28.00
2024-01-19T02:39:00,axn,28.19
2024-01-19T02:40:00,axn,28.42
2024-01-19T02:41:00,axn,28.35
2024-01-19T02:42:00,axn,28.27
2024-01-19T02:43:00,axn,28.44
2024-01-19T02:44:00,axn,28.45
2024-01-19T02:45:00,axn,28.46
2024-01-19T02:46:00,axn,28.37
2024-01-19T02:47:00,axn,28.40
2024-01-19T02:48:00,axn,28.47
2024-01-19T02:49:00,axn,28.21
2024-01-19T02:50:00,axn,28.46
2024-01-19T02:51:00,axn,28.33
2024-01-19T02:52:00,axn,28.50
2024-01-19T02:53:00,axn,28.41
2024-01-19T02:54:00,axn,28.37
2024-01-19T02:55:00,axn,28.32
2024-01-19T02:56:00,axn,28.78
2024-01-19T02:57:00,axn,28.49
2024-01-19T02:58:00,axn,29.08
2024-01-19T02:59:00,axn,28.50
2024-01-19T03:00:00,axn,28.40
2024-01-19T03:01:00,axn,28.37
2024-01-19T03:02:00,axn,28.58
2024-01-19T03:03:00,axn,29.06
2024-01-19T03:04:00,axn,28.58
2024-01-19T03:05:00,axn,28.69
2024-01-19T03:06:00,axn,28.37
2024-01-19T03:07:00,axn,28.43
2024-01-19T03:08:00,axn,29.13
2024-01-19T03:09:00,axn,29.21
2024-01-19T03:10:00,axn,28.75
2024-01-19T03:11:00,axn,28.21
2024-01-19T03:12:00,axn,28.35
2024-01-19T03:13:00,axn,31.59
2024-01-19T03:14:00,axn,28.31
2024-01-19T03:15:00,axn,28.35
2024-01-19T03:16:00,axn,28.37
2024-01-19T03:17:00,axn,28.05
2024-01-19T03:18:00,axn,28.00
2024-01-19T03:19:00,axn,28.10
2024-01-19T03:20:00,axn,28.23
2024-01-19T03:21:00,axn,28.10
2024-01-19T03:22:00,axn,28.40
2024-01-19T03:23:00,axn,28.18
2024-01-19T03:24:00,axn,28.20
2024-01-19T03:25:00,axn,28.27
2024-01-19T03:26:00,axn,28.16
2024-01-19T03:27:00,axn,38.39
2024-01-19T03:28:00,axn,38.38
2024-01-19T03:29:00,axn,38.13
2024-01-19T03:30:00,axn,38.46
2024-01-19T03:31:00,axn,27.94
2024-01-19T03:32:00,axn,28.03
2024-01-19T03:33:00,axn,28.01
2024-01-19T03:34:00,axn,27.91
2024-01-19T03:35:00,axn,27.85
2024-01-19T03:36:00,axn,27.98
2024-01-19T03:37:00,axn,27.97
2024-01-19T03:38:00,axn,28.62
2024-01-19T03:39:00,axn,28.02
2024-01-19T03:40:00,axn,27.75
2024-01-19T03:41:00,axn,27.79
2024-01-19T03:42:00,axn,27.98
2024-01-19T03:43:00,axn,28.48
2024-01-19T03:44:00,axn,27.81
2024-01-19T03:45:00,axn,27.66
2024-01-19T03:46:00,axn,44.70
2024-01-19T03:47:00,axn,42.71
2024-01-19T03:48:00,axn,42.30
2024-01-19T03:49:00,axn,42.22
2024-01-19T03:50:00,axn,53.13
2024-01-19T03:51:00,axn,41.88
2024-01-19T03:52:00,axn,42.15
2024-01-19T03:53:00,axn,27.81
2024-01-19T03:54:00,axn,27.90
2024-01-19T03:55:00,axn,27.69
2024-01-19T03:56:00,axn,27.74
2024-01-19T03:57:00,axn,27.84
2024-01-19T03:58:00,axn,27.68
2024-01-19T03:59:00,axn,28.10
2024-01-19T04:00:00,axn,28.24
2024-01-19T04:01:00,axn,28.19
2024-01-19T04:02:00,axn,27.92
2024-01-19T04:03:00,axn,28.14
2024-01-19T04:04:00,axn,28.02
2024-01-19T04:05:00,axn,28.02
2024-01-19T04:06:00,axn,27.85
2024-01-19T04:07:00,axn,27.94
2024-01-19T04:08:00,axn,27.80
2024-01-19T04:09:00,axn,27.71
2024-01-19T04:10:00,axn,27.60
2024-01-19T04:11:00,axn,27.67
2024-01-19T04:12:00,axn,28.08
2024-01-19T04:13:00,axn,27.77
2024-01-19T04:14:00,axn,27.45
2024-01-19T04:15:00,axn,27.66
2024-01-19T04:16:00,axn,27.69
2024-01-19T04:17:00,axn,27.68
2024-01-19T04:18:00,axn,28.11
2024-01-19T04:19:00,axn,27.59
2024-01-19T04:20:00,axn,27.98
2024-01-19T04:21:00,axn,27.59
2024-01-19T04:22:00,axn,27.79
2024-01-19T04:23:00,axn,27.76
2024-01-19T04:24:00,axn,33.82
2024-01-19T04:25:00,axn,33.79
2024-01-19T04:26:00,axn,34.03
2024-01-19T04:27:00,axn,34.58
2024-01-19T04:28:00,axn,33.74
2024-01-19T04:29:00,axn,33.61
2024-01-19T04:30:00,axn,33.49
2024-01-19T04:31:00,axn,33.53
2024-01-19T04:32:00,axn,33.65
2024-01-19T04:33:00,axn,33.75
2024-01-19T04:34:00,axn,33.60
2024-01-19T04:35:00,axn,33.91
2024-01-19T04:36:00,axn,33.60
2024-01-19T04:37:00,axn,33.57
2024-01-19T04:38:00,axn,33.45
2024-01-19T04:39:00,axn,33.48
2024-01-19T04:40:00,axn,27.79
2024-01-19T04:41:00,axn,27.74
2024-01-19T04:42:00,axn,27.83
2024-01-19T04:43:00,axn,27.75
2024-01-19T04:44:00,axn,27.78
2024-01-19T04:45:00,axn,27.67
2024-01-19T04:46:00,axn,27.80
2024-01-19T04:47:00,axn,27.62
2024-01-19T04:48:00,axn,27.46
2024-01-19T04:49:00,axn,27.64
2024-01-19T04:50:00,axn,27.60
2024-01-19T04:51:00,axn,27.37
2024-01-19T04:52:00,axn,27.78
2024-01-19T04:53:00,axn,27.48
2024-01-19T04:54:00,axn,28.15
2024-01-19T04:55:00,axn,28.15
2024-01-19T04:56:00,axn,27.36
2024-01-19T04:57:00,axn,27.30
2024-01-19T04:58:00,axn,27.19
2024-01-19T04:59:00,axn,27.24
2024-01-19T05:00:00,axn,27.39
2024-01-19T05:01:00,axn,31.87
2024-01-19T05:02:00,axn,33.28
2024-01-19T05:03:00,axn,33.47
2024-01-19T05:04:00,axn,33.00
2024-01-19T05:05:00,axn,32.57
2024-01-19T05:06:00,axn,32.58
2024-01-19T05:07:00,axn,32.73
2024-01-19T05:08:00,axn,33.07
2024-01-19T05:09:00,axn,32.81
2024-01-19T05:10:00,axn,32.59
2024-01-19T05:11:00,axn,32.48
2024-01-19T05:12:00,axn,32.83
2024-01-19T05:13:00,axn,26.77
2024-01-19T05:14:00,axn,27.37
2024-01-19T05:15:00,axn,27.05
2024-01-19T05:16:00,axn,27.08
2024-01-19T05:17:00,axn,26.96
2024-01-19T05:18:00,axn,27.39
2024-01-19T05:19:00,axn,27.02
2024-01-19T05:20:00,axn,27.00
2024-01-19T05:21:00,axn,27.21
2024-01-19T05:22:00,axn,27.25
2024-01-19T05:23:00,axn,27.66
2024-01-19T05:24:00,axn,27.80
2024-01-19T05:25:00,axn,27.64
2024-01-19T05:26:00,axn,27.63
2024-01-19T05:27:00,axn,28.12
2024-01-19T05:28:00,axn,27.65
2024-01-19T05:29:00,axn,27.53
2024-01-19T05:30:00,axn,27.53
2024-01-19T05:31:00,axn,29.03
2024-01-19T05:32:00,axn,29.06
2024-01-19T05:33:00,axn,28.78
2024-01-19T05:34:00,axn,28.55
2024-01-19T05:35:00,axn,28.45
2024-01-19T05:36:00,axn,28.60
2024-01-19T05:37:00,axn,28.36
2024-01-19T05:38:00,axn,28.19
2024-01-19T05:39:00,axn,28.16
2024-01-19T05:40:00,axn,28.83
2024-01-19T05:41:00,axn,28.32
2024-01-19T05:42:00,axn,28.50
2024-01-19T05:43:00,axn,28.29
2024-01-19T05:44:00,axn,28.61
2024-01-19T05:45:00,axn,28.35
2024-01-19T05:46:00,axn,28.29
2024-01-19T05:47:00,axn,28.75
2024-01-19T05:48:00,axn,28.38
2024-01-19T05:49:00,axn,28.05
2024-01-19T05:50:00,axn,29.92
2024-01-19T05:51:00,axn,29.34
2024-01-19T05:52:00,axn,28.10
2024-01-19T05:53:00,axn,30.09
2024-01-19T05:54:00,axn,28.87
2024-01-19T05:55:00,axn,30.16
2024-01-19T05:56:00,axn,31.18
2024-01-19T05:57:00,axn,32.03
2024-01-19T05:58:00,axn,30.32
2024-01-19T05:59:00,axn,28.97
2024-01-19T06:00:00,axn,28.23
2024-01-19T06:01:00,axn,30.45
2024-01-19T06:02:00,axn,27.64
2024-01-19T06:03:00,axn,28.01
2024-01-19T06:04:00,axn,28.61
2024-01-19T06:05:00,axn,27.36
2024-01-19T06:06:00,axn,29.08
2024-01-19T06:07:00,axn,29.83
2024-01-19T06:08:00,axn,29.96
2024-01-19T06:09:00,axn,27.61
2024-01-19T06:10:00,axn,31.16
2024-01-19T06:11:00,axn,27.12
2024-01-19T06:12:00,axn,30.20
2024-01-19T06:13:00,axn,28.76
2024-01-19T06:14:00,axn,29.60
2024-01-19T06:15:00,axn,46.05
2024-01-19T06:16:00,axn,30.16
2024-01-19T06:17:00,axn,30.45
2024-01-19T06:18:00,axn,28.68
2024-01-19T06:19:00,axn,30.16
2024-01-19T06:20:00,axn,28.03
2024-01-19T06:21:00,axn,29.65
2024-01-19T06:22:00,axn,28.02
2024-01-19T06:23:00,axn,27.89
2024-01-19T06:24:00,axn,29.06
2024-01-19T06:25:00,axn,29.78
2024-01-19T06:26:00,axn,29.47
2024-01-19T06:27:00,axn,29.53
2024-01-19T06:28:00,axn,27.84
2024-01-19T06:29:00,axn,29.72
2024-01-19T06:30:00,axn,28.04
2024-01-19T06:31:00,axn,29.41
2024-01-19T06:32:00,axn,29.47
2024-01-19T06:33:00,axn,28.14
2024-01-19T06:34:00,axn,27.77
2024-01-19T06:35:00,axn,29.43
2024-01-19T06:36:00,axn,27.74
2024-01-19T06:37:00,axn,29.35
2024-01-19T06:38:00,axn,27.50
2024-01-19T06:39:00,axn,28.63
2024-01-19T06:40:00,axn,27.55
2024-01-19T06:41:00,axn,27.29
2024-01-19T06:42:00,axn,27.28
2024-01-19T06:43:00,axn,33.88
2024-01-19T06:44:00,axn,31.87
2024-01-19T06:45:00,axn,29.75
2024-01-19T06:46:00,axn,28.31
2024-01-19T06:47:00,axn,27.41
2024-01-19T06:48:00,axn,29.55
2024-01-19T06:49:00,axn,31.82
2024-01-19T06:50:00,axn,29.70
2024-01-19T06:51:00,axn,29.64
2024-01-19T06:52:00,axn,27.74
2024-01-19T06:53:00,axn,27.60
2024-01-19T06:54:00,axn,28.91
2024-01-19T06:55:00,axn,28.05
2024-01-19T06:56:00,axn,29.52
2024-01-19T06:57:00,axn,29.30
2024-01-19T06:58:00,axn,30.14
2024-01-19T06:59:00,axn,33.76
2024-01-19T07:00:00,axn,32.82
2024-01-19T07:01:00,axn,34.21
2024-01-19T07:02:00,axn,35.18
2024-01-19T07:03:00,axn,35.29
2024-01-19T07:04:00,axn,35.03
2024-01-19T07:05:00,axn,34.82
2024-01-19T07:06:00,axn,31.93
2024-01-19T07:07:00,axn,32.48
2024-01-19T07:08:00,axn,32.66
2024-01-19T07:09:00,axn,33.36
2024-01-19T07:10:00,axn,32.76
2024-01-19T07:11:00,axn,33.16
2024-01-19T07:12:00,axn,32.71
2024-01-19T07:13:00,axn,33.05
2024-01-19T07:14:00,axn,33.08
2024-01-19T07:15:00,axn,33.20
2024-01-19T07:16:00,axn,39.19
2024-01-19T07:17:00,axn,34.78
2024-01-19T07:18:00,axn,49.13
2024-01-19T07:19:00,axn,49.41
2024-01-19T07:20:00,axn,52.95
2024-01-19T07:21:00,axn,49.49
2024-01-19T07:22:00,axn,37.30
2024-01-19T07:23:00,axn,36.01
2024-01-19T07:24:00,axn,35.89
2024-01-19T07:25:00,axn,35.54
2024-01-19T07:26:00,axn,34.94
2024-01-19T07:27:00,axn,33.56
2024-01-19T07:28:00,axn,35.36
2024-01-19T07:29:00,axn,35.00
2024-01-19T07:30:00,axn,35.86
2024-01-19T07:31:00,axn,33.88
2024-01-19T07:32:00,axn,33.37
2024-01-19T07:33:00,axn,33.39
2024-01-19T07:34:00,axn,32.93
2024-01-19T07:35:00,axn,33.71
2024-01-19T07:36:00,axn,33.69
2024-01-19T07:37:00,axn,34.16
2024-01-19T07:38:00,axn,32.91
2024-01-19T07:39:00,axn,32.72
2024-01-19T07:40:00,axn,33.31
2024-01-19T07:41:00,axn,33.02
2024-01-19T07:42:00,axn,33.79
2024-01-19T07:43:00,axn,33.68
2024-01-19T07:44:00,axn,33.47
2024-01-19T07:45:00,axn,34.61
2024-01-19T07:46:00,axn,34.43
2024-01-19T07:47:00,axn,33.19
2024-01-19T07:48:00,axn,50.48
2024-01-19T07:49:00,axn,34.96
2024-01-19T07:50:00,axn,33.87
2024-01-19T07:51:00,axn,33.90
2024-01-19T07:52:00,axn,34.34
2024-01-19T07:53:00,axn,33.90
2024-01-19T07:54:00,axn,33.47
2024-01-19T07:55:00,axn,33.92
2024-01-19T07:56:00,axn,34.80
2024-01-19T07:57:00,axn,34.73
2024-01-19T07:58:00,axn,33.83
2024-01-19T07:59:00,axn,32.88
2024-01-19T08:00:00,axn,34.20
2024-01-19T08:01:00,axn,34.70
2024-01-19T08:02:00,axn,38.14
2024-01-19T08:03:00,axn,39.31
2024-01-19T08:04:00,axn,39.55
2024-01-19T08:05:00,axn,38.99
2024-01-19T08:06:00,axn,49.48
2024-01-19T08:07:00,axn,50.26
2024-01-19T08:08:00,axn,50.96
2024-01-19T08:09:00,axn,51.81
2024-01-19T08:10:00,axn,41.76
2024-01-19T08:11:00,axn,40.96
2024-01-19T08:12:00,axn,40.68
2024-01-19T08:13:00,axn,41.83
2024-01-19T08:14:00,axn,41.28
2024-01-19T08:15:00,axn,41.35
2024-01-19T08:16:00,axn,40.95
2024-01-19T08:17:00,axn,41.62
2024-01-19T08:18:00,axn,41.81
2024-01-19T08:19:00,axn,48.47
2024-01-19T08:20:00,axn,48.42
2024-01-19T08:21:00,axn,50.25
2024-01-19T08:22:00,axn,42.06
2024-01-19T08:23:00,axn,42.09
2024-01-19T08:24:00,axn,41.85
2024-01-19T08:25:00,axn,41.70
2024-01-19T08:26:00,axn,41.81
2024-01-19T08:27:00,axn,41.61
2024-01-19T08:28:00,axn,41.78
2024-01-19T08:29:00,axn,42.32
2024-01-19T08:30:00,axn,42.61
2024-01-19T08:31:00,axn,42.36
2024-01-19T08:32:00,axn,42.06
2024-01-19T08:33:00,axn,43.58
2024-01-19T08:34:00,axn,43.02
2024-01-19T08:35:00,axn,44.26
2024-01-19T08:36:00,axn,42.55
2024-01-19T08:37:00,axn,42.60
2024-01-19T08:38:00,axn,42.14
2024-01-19T08:39:00,axn,41.64
2024-01-19T08:40:00,axn,41.71
2024-01-19T08:41:00,axn,41.45
2024-01-19T08:42:00,axn,42.68
2024-01-19T08:43:00,axn,42.61
2024-01-19T08:44:00,axn,41.80
2024-01-19T08:45:00,axn,42.19
2024-01-19T08:46:00,axn,41.04
2024-01-19T08:47:00,axn,41.89
2024-01-19T08:48:00,axn,42.14
2024-01-19T08:49:00,axn,40.61
2024-01-19T08:50:00,axn,40.62
2024-01-19T08:51:00,axn,40.53
2024-01-19T08:52:00,axn,40.92
2024-01-19T08:53:00,axn,40.94
2024-01-19T08:54:00,axn,45.93
2024-01-19T08:55:00,axn,45.93
2024-01-19T08:56:00,axn,46.26
2024-01-19T08:57:00,axn,41.65
2024-01-19T08:58:00,axn,41.17
2024-01-19T08:59:00,axn,41.14
2024-01-19T09:00:00,axn,42.82
2024-01-19T09:01:00,axn,41.30
2024-01-19T09:02:00,axn,41.28
2024-01-19T09:03:00,axn,41.18
2024-01-19T09:04:00,axn,41.29
2024-01-19T09:05:00,axn,41.77
2024-01-19T09:06:00,axn,41.95
2024-01-19T09:07:00,axn,41.67
2024-01-19T09:08:00,axn,45.91
2024-01-19T09:09:00,axn,42.56
2024-01-19T09:10:00,axn,42.53
2024-01-19T09:11:00,axn,42.03
2024-01-19T09:12:00,axn,42.18
2024-01-19T09:13:00,axn,41.50
2024-01-19T09:14:00,axn,42.69
2024-01-19T09:15:00,axn,42.60
2024-01-19T09:16:00,axn,41.98
2024-01-19T09:17:00,axn,41.74
2024-01-19T09:18:00,axn,41.65
2024-01-19T09:19:00,axn,43.37
2024-01-19T09:20:00,axn,41.75
2024-01-19T09:21:00,axn,41.73
2024-01-19T09:22:00,axn,43.12
2024-01-19T09:23:00,axn,42.48
2024-01-19T09:24:00,axn,58.31
2024-01-19T09:25:00,axn,41.92
2024-01-19T09:26:00,axn,42.24
2024-01-19T09:27:00,axn,42.26
2024-01-19T09:28:00,axn,42.19
2024-01-19T09:29:00,axn,41.82
2024-01-19T09:30:00,axn,41.99
2024-01-19T09:31:00,axn,41.79
2024-01-19T09:32:00,axn,42.28
2024-01-19T09:33:00,axn,42.22
2024-01-19T09:34:00,axn,44.07
2024-01-19T09:35:00,axn,41.91
2024-01-19T09:36:00,axn,42.27
2024-01-19T09:37:00,axn,42.06
2024-01-19T09:38:00,axn,42.32
2024-01-19T09:39:00,axn,41.66
2024-01-19T09:40:00,axn,42.34
2024-01-19T09:41:00,axn,43.68
2024-01-19T09:42:00,axn,41.90
2024-01-19T09:43:00,axn,41.67
2024-01-19T09:44:00,axn,42.22
2024-01-19T09:45:00,axn,41.63
2024-01-19T09:46:00,axn,41.74
2024-01-19T09:47:00,axn,41.44
2024-01-19T09:48:00,axn,41.32
2024-01-19T09:49:00,axn,42.47
2024-01-19T09:50:00,axn,41.55
2024-01-19T09:51:00,axn,41.46
2024-01-19T09:52:00,axn,41.76
2024-01-19T09:53:00,axn,41.47
2024-01-19T09:54:00,axn,41.41
2024-01-19T09:55:00,axn,42.59
2024-01-19T09:56:00,axn,42.83
2024-01-19T09:57:00,axn,43.65
2024-01-19T09:58:00,axn,42.22
2024-01-19T09:59:00,axn,41.55
2024-01-19T10:00:00,axn,41.67
2024-01-19T10:01:00,axn,41.53
2024-01-19T10:02:00,axn,41.73
2024-01-19T10:03:00,axn,41.81
2024-01-19T10:04:00,axn,58.27
2024-01-19T10:05:00,axn,41.98
2024-01-19T10:06:00,axn,41.83
2024-01-19T10:07:00,axn,41.91
2024-01-19T10:08:00,axn,42.05
2024-01-19T10:09:00,axn,42.75
2024-01-19T10:10:00,axn,41.91
2024-01-19T10:11:00,axn,42.83
2024-01-19T10:12:00,axn,43.08
2024-01-19T10:13:00,axn,43.05
2024-01-19T10:14:00,axn,44.71
2024-01-19T10:15:00,axn,63.94
2024-01-19T10:16:00,axn,45.13
2024-01-19T10:17:00,axn,45.14
2024-01-19T10:18:00,axn,43.41
2024-01-19T10:19:00,axn,43.99
2024-01-19T10:20:00,axn,44.62
2024-01-19T10:21:00,axn,43.48
2024-01-19T10:22:00,axn,44.24
2024-01-19T10:23:00,axn,42.16
2024-01-19T10:24:00,axn,42.62
2024-01-19T10:25:00,axn,42.86
2024-01-19T10:26:00,axn,42.97
2024-01-19T10:27:00,axn,43.55
2024-01-19T10:28:00,axn,44.11
2024-01-19T10:29:00,axn,42.59
2024-01-19T10:30:00,axn,43.19
2024-01-19T10:31:00,axn,42.64
2024-01-19T10:32:00,axn,43.36
2024-01-19T10:33:00,axn,42.70
2024-01-19T10:34:00,axn,42.91
2024-01-19T10:35:00,axn,42.82
2024-01-19T10:36:00,axn,42.68
2024-01-19T10:37:00,axn,42.34
2024-01-19T10:38:00,axn,42.65
2024-01-19T10:39:00,axn,42.64
2024-01-19T10:40:00,axn,42.29
2024-01-19T10:41:00,axn,43.25
2024-01-19T10:42:00,axn,42.18
2024-01-19T10:43:00,axn,42.05
2024-01-19T10:44:00,axn,42.50
2024-01-19T10:45:00,axn,42.07
2024-01-19T10:46:00,axn,42.17
2024-01-19T10:47:00,axn,42.01
2024-01-19T10:48:00,axn,41.99
2024-01-19T10:49:00,axn,42.16
2024-01-19T10:50:00,axn,41.54
2024-01-19T10:51:00,axn,41.82
2024-01-19T10:52:00,axn,43.56
2024-01-19T10:53:00,axn,43.25
2024-01-19T10:54:00,axn,47.87
2024-01-19T10:55:00,axn,41.68
2024-01-19T10:56:00,axn,42.57
2024-01-19T10:57:00,axn,43.33
2024-01-19T10:58:00,axn,42.08
2024-01-19T10:59:00,axn,41.12
2024-01-19T11:00:00,axn,41.24
2024-01-19T11:01:00,axn,41.16
2024-01-19T11:02:00,axn,49.22
2024-01-19T11:03:00,axn,49.35
2024-01-19T11:04:00,axn,50.16
2024-01-19T11:05:00,axn,49.97
2024-01-19T11:06:00,axn,49.34
2024-01-19T11:07:00,axn,49.37
2024-01-19T11:08:00,axn,49.05
2024-01-19T11:09:00,axn,49.46
2024-01-19T11:10:00,axn,49.04
2024-01-19T11:11:00,axn,48.90
2024-01-19T11:12:00,axn,48.77
2024-01-19T11:13:00,axn,48.77
2024-01-19T11:14:00,axn,49.61
2024-01-19T11:15:00,axn,48.84
2024-01-19T11:16:00,axn,49.58
2024-01-19T11:17:00,axn,49.34
2024-01-19T11:18:00,axn,67.63
2024-01-19T11:19:00,axn,49.54
2024-01-19T11:20:00,axn,63.55
2024-01-19T11:21:00,axn,48.93
2024-01-19T11:22:00,axn,65.14
2024-01-19T11:23:00,axn,49.23
2024-01-19T11:24:00,axn,64.36
2024-01-19T11:25:00,axn,63.38
2024-01-19T11:26:00,axn,63.44
2024-01-19T11:27:00,axn,49.37
2024-01-19T11:28:00,axn,49.45
2024-01-19T11:29:00,axn,49.31
2024-01-19T11:30:00,axn,50.66
2024-01-19T11:31:00,axn,50.16
2024-01-19T11:32:00,axn,49.95
2024-01-19T11:33:00,axn,42.77
2024-01-19T11:34:00,axn,42.80
2024-01-19T11:35:00,axn,43.08
2024-01-19T11:36:00,axn,42.62
2024-01-19T11:37:00,axn,42.61
2024-01-19T11:38:00,axn,59.12
2024-01-19T11:39:00,axn,43.68
2024-01-19T11:40:00,axn,43.19
2024-01-19T11:41:00,axn,43.84
2024-01-19T11:42:00,axn,42.94
2024-01-19T11:43:00,axn,43.42
2024-01-19T11:44:00,axn,43.10
2024-01-19T11:45:00,axn,43.17
2024-01-19T11:46:00,axn,43.36
2024-01-19T11:47:00,axn,43.07
2024-01-19T11:48:00,axn,42.91
2024-01-19T11:49:00,axn,59.14
2024-01-19T11:50:00,axn,42.57
2024-01-19T11:51:00,axn,42.47
2024-01-19T11:52:00,axn,42.60
2024-01-19T11:53:00,axn,47.33
2024-01-19T11:54:00,axn,46.26
2024-01-19T11:55:00,axn,53.70
2024-01-19T11:56:00,axn,52.82
2024-01-19T11:57:00,axn,52.76
2024-01-19T11:58:00,axn,52.76
2024-01-19T11:59:00,axn,42.31
2024-01-19T12:00:00,axn,43.32
2024-01-19T12:01:00,axn,44.10
2024-01-19T12:02:00,axn,44.37
2024-01-19T12:03:00,axn,42.96
2024-01-19T12:04:00,axn,42.20
2024-01-19T12:05:00,axn,42.50
2024-01-19T12:06:00,axn,41.78
2024-01-19T12:07:00,axn,41.90
2024-01-19T12:08:00,axn,40.73
2024-01-19T12:09:00,axn,40.89
2024-01-19T12:10:00,axn,41.72
2024-01-19T12:11:00,axn,40.45
2024-01-19T12:12:00,axn,41.43
2024-01-19T12:13:00,axn,40.76
2024-01-19T12:14:00,axn,40.49
2024-01-19T12:15:00,axn,40.95
2024-01-19T12:16:00,axn,41.39
2024-01-19T12:17:00,axn,41.01
2024-01-19T12:18:00,axn,41.71
2024-01-19T12:19:00,axn,41.52
2024-01-19T12:20:00,axn,40.78
2024-01-19T12:21:00,axn,40.73
2024-01-19T12:22:00,axn,40.97
2024-01-19T12:23:00,axn,40.93
2024-01-19T12:24:00,axn,40.92
2024-01-19T12:25:00,axn,40.96
2024-01-19T12:26:00,axn,41.65
2024-01-19T12:27:00,axn,40.78
2024-01-19T12:28:00,axn,40.77
2024-01-19T12:29:00,axn,40.73
2024-01-19T12:30:00,axn,40.49
2024-01-19T12:31:00,axn,40.45
2024-01-19T12:32:00,axn,40.38
2024-01-19T12:33:00,axn,40.24
2024-01-19T12:34:00,axn,40.54
2024-01-19T12:35:00,axn,40.03
2024-01-19T12:36:00,axn,41.66
2024-01-19T12:37:00,axn,40.10
2024-01-19T12:38:00,axn,40.02
2024-01-19T12:39:00,axn,40.00
2024-01-19T12:40:00,axn,40.59
2024-01-19T12:41:00,axn,40.22
2024-01-19T12:42:00,axn,41.53
2024-01-19T12:43:00,axn,40.08
2024-01-19T12:44:00,axn,40.49
2024-01-19T12:45:00,axn,40.54
2024-01-19T12:46:00,axn,40.60
2024-01-19T12:47:00,axn,40.03
2024-01-19T12:48:00,axn,40.82
2024-01-19T12:49:00,axn,40.09
2024-01-19T12:50:00,axn,41.55
2024-01-19T12:51:00,axn,39.97
2024-01-19T12:52:00,axn,40.79
2024-01-19T12:53:00,axn,40.58
2024-01-19T12:54:00,axn,40.76
2024-01-19T12:55:00,axn,40.80
2024-01-19T12:56:00,axn,40.84
2024-01-19T12:57:00,axn,40.14
2024-01-19T12:58:00,axn,40.29
2024-01-19T12:59:00,axn,40.17
2024-01-19T13:00:00,axn,40.41
2024-01-19T13:01:00,axn,40.39
2024-01-19T13:02:00,axn,39.85
2024-01-19T13:03:00,axn,40.05
2024-01-19T13:04:00,axn,40.21
2024-01-19T13:05:00,axn,40.23
2024-01-19T13:06:00,axn,41.69
2024-01-19T13:07:00,axn,40.15
2024-01-19T13:08:00,axn,40.17
2024-01-19T13:09:00,axn,39.55
2024-01-19T13:10:00,axn,39.82
2024-01-19T13:11:00,axn,39.74
2024-01-19T13:12:00,axn,40.12
2024-01-19T13:13:00,axn,40.32
2024-01-19T13:14:00,axn,40.60
2024-01-19T13:15:00,axn,40.37
2024-01-19T13:16:00,axn,40.67
2024-01-19T13:17:00,axn,40.57
2024-01-19T13:18:00,axn,40.44